TimeEDT,TemperatureF,Dew PointF,Humidity,Sea Level PressureIn,VisibilityMPH,Wind Direction,Wind SpeedMPH,Gust SpeedMPH,PrecipitationIn,Events,Conditions,WindDirDegrees,DateUTC
12:54 AM,72.0,70.0,93,30.29,9.0,Calm,Calm,-,N/A,,Clear,0,2013-07-16 04:54:00
1:54 AM,72.0,71.1,97,30.29,10.0,Calm,Calm,-,N/A,,Clear,0,2013-07-16 05:54:00
2:54 AM,70.0,69.1,97,30.29,7.0,Calm,Calm,-,N/A,,Clear,0,2013-07-16 06:54:00
3:54 AM,70.0,70.0,100,30.28,8.0,Calm,Calm,-,N/A,,Clear,0,2013-07-16 07:54:00
4:54 AM,70.0,69.1,97,30.28,7.0,Calm,Calm,-,N/A,,Clear,0,2013-07-16 08:54:00
5:54 AM,70.0,69.1,97,30.29,6.0,Calm,Calm,-,N/A,,Clear,0,2013-07-16 09:54:00
6:54 AM,69.1,69.1,100,30.29,4.0,Calm,Calm,-,N/A,,Clear,0,2013-07-16 10:54:00
7:54 AM,75.9,71.1,85,30.30,10.0,Calm,Calm,-,N/A,,Clear,0,2013-07-16 11:54:00
8:54 AM,80.1,72.0,76,30.31,10.0,North,3.5,-,N/A,,Clear,360,2013-07-16 12:54:00
9:54 AM,84.0,72.0,67,30.31,10.0,Calm,Calm,-,N/A,,Clear,0,2013-07-16 13:54:00
10:54 AM,87.1,71.1,59,30.30,10.0,Variable,3.5,-,N/A,,Clear,0,2013-07-16 14:54:00
11:54 AM,84.9,71.1,63,30.30,10.0,SSW,3.5,-,N/A,,Scattered Clouds,210,2013-07-16 15:54:00
12:54 PM,88.0,68.0,51,30.29,10.0,NE,4.6,-,N/A,,Scattered Clouds,40,2013-07-16 16:54:00
1:54 PM,89.1,69.1,52,30.27,10.0,ENE,4.6,-,N/A,,Partly Cloudy,70,2013-07-16 17:54:00
2:54 PM,87.1,69.1,55,30.26,10.0,ENE,4.6,-,N/A,,Mostly Cloudy,70,2013-07-16 18:54:00
3:54 PM,90.0,69.1,50,30.24,10.0,Calm,Calm,-,N/A,,Clear,0,2013-07-16 19:54:00
4:54 PM,90.0,70.0,52,30.23,10.0,Variable,3.5,-,N/A,,Clear,0,2013-07-16 20:54:00
5:54 PM,90.0,69.1,50,30.22,10.0,South,3.5,-,N/A,,Clear,180,2013-07-16 21:54:00
6:54 PM,89.1,69.1,52,30.22,10.0,Calm,Calm,-,N/A,,Clear,0,2013-07-16 22:54:00
7:54 PM,84.0,73.0,69,30.23,10.0,Calm,Calm,-,N/A,,Clear,0,2013-07-16 23:54:00
8:54 PM,78.1,75.0,90,30.22,10.0,Calm,Calm,-,N/A,,Clear,0,2013-07-17 00:54:00
9:54 PM,75.9,73.0,91,30.25,10.0,Calm,Calm,-,N/A,,Clear,0,2013-07-17 01:54:00
10:54 PM,73.9,73.0,97,30.24,10.0,Calm,Calm,-,N/A,,Clear,0,2013-07-17 02:54:00
11:54 PM,73.9,73.0,97,30.24,10.0,Calm,Calm,-,N/A,,Clear,0,2013-07-17 03:54:00